Tracking 32142 objects as of 13-Nov-2025
HD Live streaming from Space Station
objects crossing your sky now

STARLINK-34674

Track STARLINK-34674 now!
10-day predictions
STARLINK-34674 is classified as:


NORAD ID: 65526
Int'l Code: 2025-200G
Perigee: 555.0 km
Apogee: 558.0 km
Inclination: 97.6 °
Period: 95.6 minutes
Semi major axis: 6927 km
RCS: Unknown
Launch date: September 6, 2025
Source: United States (US)
Launch site: AIR FORCE EASTERN TEST RANGE (AFETR)
Your satellite tracking list
Your tracking list is empty




NASA's NSSDC Master Catalog

Two Line Element Set (TLE):
1 65526U 25200G   25317.00002315  .00008228  00000-0  57306-3 0  9996
2 65526  97.6037  24.8225 0002162 140.4828 289.0493 15.05698114  5908
Source of the keplerian elements: AFSPC